KD5OH Weather Reports


Display with metric or nautical units.
time (UTC)temp
F
wind
direction
speed
MPH
gust
MPH
rain 1hr
in
rain 24hr
in
rain mn
in
humidity
%
barometer
mb
20260903074636 80 143 3.0 6.0 0.00 0.00 0.00 34 1017.2
20260903073128 81 169 1.0 6.0 0.00 0.00 0.00 33 1017.2
20260903071623 81 148 2.0 6.0 0.00 0.00 0.00 34 1017.1
20260903070135 83 157 3.0 7.0 0.00 0.00 0.00 32 1017.1
20260903064626 83 161 2.0 5.0 0.00 0.00 0.00 32 1017.1
20260903063121 84 120 4.0 6.0 0.00 0.00 0.00 31 1017.1
20260903061653 85 129 6.0 12.0 0.00 0.00 0.00 30 1017.2
20260903060127 84 139 6.0 12.0 0.00 0.00 0.00 31 1017.3
20260903054659 83 118 7.0 10.0 0.00 0.00 0.00 32 1017.3
20260903053150 80 131 2.0 6.0 0.00 0.00 0.00 35 1017.6
20260903051624 79 155 0.0 1.0 0.00 0.00 0.00 35 1017.3
20260903050138 80 180 0.0 0.0 0.00 0.00 0.00 35 1017.5
20260903044633 80 181 0.0 1.0 0.00 0.00 0.00 34 1017.4
20260903043126 81 210 0.0 0.0 0.00 0.00 0.00 34 1017.4
20260903041621 82 208 1.0 1.0 0.00 0.00 0.00 35 1017.4
20260903040135 83 113 0.0 0.0 0.00 0.00 0.00 31 1017.3
20260903034627 84 113 0.0 1.0 0.00 0.00 0.00 31 1017.3
20260903033122 84 111 0.0 1.0 0.00 0.00 0.00 30 1017.1
20260903031635 84 111 0.0 1.0 0.00 0.00 0.00 30 1016.8
20260903030132 84 118 0.0 1.0 0.00 0.00 0.00 30 1016.8
20260903024624 83 118 0.0 0.0 0.00 0.00 0.00 30 1016.7
20260903023139 83 117 0.0 1.0 0.00 0.00 0.00 32 1016.5
20260903021631 84 233 0.0 0.0 0.00 0.00 0.00 30 1016.4
20260903020143 85 233 0.0 0.0 0.00 0.00 0.00 29 1016.4
20260903014657 86 233 0.0 0.0 0.00 0.00 0.00 27 1016.2
20260903013129 88 233 0.0 0.0 0.00 0.00 0.00 25 1016.1
20260903011644 91 233 0.0 0.0 0.00 0.00 0.00 23 1016.1
20260903010137 92 233 0.0 5.0 0.00 0.00 0.00 22 1016.0
20260903004627 93 164 0.0 1.0 0.00 0.00 0.00 21 1016.0
20260903003123 95 232 1.0 4.0 0.00 0.00 0.00 20 1016.1
20260903001654 94 258 3.0 6.0 0.00 0.00 0.00 22 1016.0
20260903000130 94 246 4.0 7.0 0.00 0.00 0.00 21 1016.2
20260902234622 94 153 3.0 7.0 0.00 0.00 0.00 20 1016.2
20260902233138 94 169 5.0 9.0 0.00 0.00 0.00 20 1016.2
20260902231630 93 232 6.0 12.0 0.00 0.00 0.00 22 1016.4
20260902230142 93 186 2.0 4.0 0.00 0.00 0.00 22 1016.4
20260902224637 92 263 3.0 6.0 0.00 0.00 0.00 22 1016.5
20260902223128 93 244 3.0 9.0 0.00 0.00 0.00 22 1016.7
20260902221623 96 243 3.0 9.0 0.00 0.00 0.00 19 1016.8
20260902220135 96 234 4.0 11.0 0.00 0.00 0.00 19 1016.9
20260902214647 95 296 3.0 10.0 0.00 0.00 0.00 20 1016.8
20260902213121 95 274 4.0 11.0 0.00 0.00 0.00 20 1017.1
20260902211632 95 277 1.0 5.0 0.00 0.00 0.00 21 1017.2
20260902210128 95 325 4.0 12.0 0.00 0.00 0.00 20 1017.4
20260902204701 95 137 3.0 6.0 0.00 0.00 0.00 20 1017.8
20260902203153 94 286 2.0 6.0 0.00 0.00 0.00 21 1018.1
20260902201626 96 253 6.0 11.0 0.00 0.00 0.00 21 1018.2
20260902200138 95 196 4.0 8.0 0.00 0.00 0.00 22 1018.5
20260902194654 94 279 1.0 5.0 0.00 0.00 0.00 22 1018.7
20260902193125 94 235 1.0 10.0 0.00 0.00 0.00 21 1019.0
20260902191636 94 161 5.0 9.0 0.00 0.00 0.00 22 1019.2
20260902190152 93 229 3.0 10.0 0.00 0.00 0.00 22 1019.6
20260902184640 93 214 4.0 10.0 0.00 0.00 0.00 23 1019.8
20260902183136 93 238 6.0 9.0 0.00 0.00 0.00 24 1020.0
20260902181628 92 251 4.0 11.0 0.00 0.00 0.00 23 1020.4
20260902180124 92 270 7.0 12.0 0.00 0.00 0.00 25 1020.4
20260902174655 92 111 4.0 8.0 0.00 0.00 0.00 25 1020.6
20260902173125 91 217 5.0 9.0 0.00 0.00 0.00 26 1020.9
20260902171640 91 187 3.0 10.0 0.00 0.00 0.00 26 1021.0
20260902170151 90 256 4.0 8.0 0.00 0.00 0.00 25 1021.1
20260902164626 89 184 3.0 9.0 0.00 0.00 0.00 26 1021.0
20260902163138 88 147 4.0 8.0 0.00 0.00 0.00 27 1021.1
20260902161650 88 208 5.0 8.0 0.00 0.00 0.00 28 1021.0
20260902160146 87 142 3.0 8.0 0.00 0.00 0.00 29 1021.0
20260902154636 86 172 2.0 8.0 0.00 0.00 0.00 31 1021.0
20260902153131 85 158 4.0 8.0 0.00 0.00 0.00 31 1020.7
20260902151622 84 149 4.0 9.0 0.00 0.00 0.00 32 1020.8
20260902150134 83 143 0.0 0.0 0.00 0.00 0.00 34 1020.7
20260902144650 83 130 3.0 8.0 0.00 0.00 0.00 35 1020.7
20260902143122 81 201 2.0 4.0 0.00 0.00 0.00 39 1020.6
20260902141657 78 142 2.0 5.0 0.00 0.00 0.00 41 1020.4
20260902140128 76 129 0.0 1.0 0.00 0.00 0.00 46 1020.3
20260902134629 74 138 0.0 1.0 0.00 0.00 0.00 47 1020.2
20260902133124 72 120 0.0 1.0 0.00 0.00 0.00 48 1020.0
20260902131636 70 142 0.0 0.0 0.00 0.00 0.00 50 1019.9
20260902130132 69 131 0.0 1.0 0.00 0.00 0.00 50 1019.7
20260902124623 67 118 0.0 0.0 0.00 0.00 0.00 53 1019.7
20260902123139 67 103 0.0 0.0 0.00 0.00 0.00 55 1019.7
20260902121631 67 130 0.0 0.0 0.00 0.00 0.00 55 1019.5
20260902120123 68 109 0.0 0.0 0.00 0.00 0.00 54 1019.4
20260902114638 69 158 0.0 0.0 0.00 0.00 0.00 52 1019.3
20260902113131 69 91 0.0 1.0 0.00 0.00 0.00 52 1019.3
20260902111626 71 172 0.0 2.0 0.00 0.00 0.00 49 1019.1
20260902110139 72 147 2.0 3.0 0.00 0.00 0.00 47 1019.1
20260902104635 72 151 1.0 4.0 0.00 0.00 0.00 46 1019.1
20260902103127 73 137 2.0 4.0 0.00 0.00 0.00 46 1019.0
20260902101623 71 121 2.0 5.0 0.00 0.00 0.00 48 1019.1
20260902100136 69 123 0.0 1.0 0.00 0.00 0.00 53 1019.1
20260902094627 68 99 0.0 1.0 0.00 0.00 0.00 55 1019.1
20260902093123 68 94 0.0 1.0 0.00 0.00 0.00 54 1019.1
20260902091634 68 80 0.0 2.0 0.00 0.00 0.00 54 1019.2
20260902090151 68 161 0.0 0.0 0.00 0.00 0.00 54 1019.3
20260902084621 69 272 0.0 0.0 0.00 0.00 0.00 54 1019.1
20260902083154 68 272 0.0 1.0 0.00 0.00 0.00 55 1019.2
20260902081628 69 274 0.0 1.0 0.00 0.00 0.00 53 1019.2
20260902080201 71 157 0.0 0.0 0.00 0.00 0.00 50 1019.3